Torna al catalogo

COSMOS 1823 DEB

AttivoLEO
NORAD 39816·DEBRIS·🇷🇺 Russia

Lanciato Feb 20, 1987 da Plesetsk Cosmodrome

Loading…

Prossimi Passaggi (prossime 24 ore)

TLE

AggiornatoSource: Space-Track

Epoca: Sep 14, 2026, 03:48 UTC

1 39816U 87020EQ  26257.15856398  .00001052  00000-0  11041-3 0  9999
2 39816  74.0411 183.8192 0029970 315.1162  44.7596 14.90686644644753

Traccia COSMOS 1823 DEB in tempo reale con AllMySat

Download on the App Store